![]() |
EMODnet Physics ERDDAP
Easier access to scientific data |
log in|
Brought to you by EMODnet Physics |
| Dataset Title: | NDBC - Collection of dew point temperature (DEWT) TimeSeries - IN SITU MultiPointTimeSeriesObservation
|
| Institution: | NDBC (Dataset ID: TS_DEWT_NDBC) |
| Information: | Summary
| License
| FGDC
| ISO 19115
| Metadata
| Background
| Subset
| Data Access Form
| Make a graph
|
| Name | Last modified | Size | Description | |
|---|---|---|---|---|
| Parent Directory | - | - | ||
| 46041_TS_DEWT_011988.nc | 06-Dec-2024 22:54 | 1143818 | ||
| 46041_TS_DEWT_011990.nc | 06-Dec-2024 22:56 | 1261396 | ||
| 46041_TS_DEWT_011992.nc | 06-Dec-2024 23:00 | 1262351 | ||
| 46041_TS_DEWT_011993.nc | 06-Dec-2024 23:02 | 908825 | ||
| 46041_TS_DEWT_011994.nc | 06-Dec-2024 23:08 | 1144611 | ||
| 46041_TS_DEWT_011995.nc | 06-Dec-2024 23:18 | 1144135 | ||
| 46041_TS_DEWT_011996.nc | 06-Dec-2024 23:20 | 1143626 | ||
| 46041_TS_DEWT_011997.nc | 06-Dec-2024 23:21 | 1113091 | ||
| 46041_TS_DEWT_012000.nc | 06-Dec-2024 23:24 | 1110568 | ||
| 46041_TS_DEWT_012002.nc | 06-Dec-2024 23:40 | 903425 | ||
| 46041_TS_DEWT_012003.nc | 06-Dec-2024 23:45 | 994918 | ||
| 46041_TS_DEWT_012004.nc | 06-Dec-2024 23:47 | 995134 | ||
| 46041_TS_DEWT_012005.nc | 06-Dec-2024 23:50 | 995356 | ||
| 46041_TS_DEWT_012008.nc | 07-Dec-2024 00:02 | 1264734 | ||
| 46041_TS_DEWT_012009.nc | 07-Dec-2024 00:04 | 1266749 | ||
| 46041_TS_DEWT_012010.nc | 07-Dec-2024 00:06 | 917512 | ||
| 46041_TS_DEWT_012011.nc | 07-Dec-2024 00:09 | 995654 | ||
| 46041_TS_DEWT_012012.nc | 07-Dec-2024 00:11 | 1144199 | ||
| 46041_TS_DEWT_012013.nc | 07-Dec-2024 00:13 | 1143612 | ||
| 46041_TS_DEWT_012014.nc | 07-Dec-2024 00:15 | 1109407 | ||
| 46041_TS_DEWT_012016.nc | 07-Dec-2024 00:19 | 1114641 | ||
| 46041_TS_DEWT_012017.nc | 07-Dec-2024 00:21 | 919209 | ||
| 46041_TS_DEWT_012018.nc | 07-Dec-2024 00:23 | 995575 | ||
| 46041_TS_DEWT_012019.nc | 07-Dec-2024 00:24 | 995574 | ||
| 46041_TS_DEWT_012020.nc | 07-Dec-2024 00:26 | 994759 | ||
| 46041_TS_DEWT_012021.nc | 07-Dec-2024 00:30 | 641163 | ||
| 46041_TS_DEWT_012022.nc | 07-Dec-2024 00:34 | 1025349 | ||
| 46041_TS_DEWT_012023.nc | 07-Dec-2024 00:35 | 1265653 | ||
| 46041_TS_DEWT_012025.nc | 07-Feb-2025 12:22 | 996042 | ||
| 46041_TS_DEWT_012026.nc | 02-Feb-2026 19:57 | 1143993 | ||
| 46041_TS_DEWT_021988.nc | 06-Dec-2024 22:54 | 1144079 | ||
| 46041_TS_DEWT_021990.nc | 06-Dec-2024 22:57 | 1128569 | ||
| 46041_TS_DEWT_021991.nc | 06-Dec-2024 22:58 | 427147 | ||
| 46041_TS_DEWT_021992.nc | 06-Dec-2024 23:00 | 604177 | ||
| 46041_TS_DEWT_021993.nc | 06-Dec-2024 23:02 | 596047 | ||
| 46041_TS_DEWT_021994.nc | 06-Dec-2024 23:09 | 422030 | ||
| 46041_TS_DEWT_021995.nc | 06-Dec-2024 23:18 | 428358 | ||
| 46041_TS_DEWT_021996.nc | 06-Dec-2024 23:20 | 602275 | ||
| 46041_TS_DEWT_021997.nc | 06-Dec-2024 23:21 | 588797 | ||
| 46041_TS_DEWT_022000.nc | 06-Dec-2024 23:24 | 420982 | ||
| 46041_TS_DEWT_022002.nc | 06-Dec-2024 23:42 | 429863 | ||
| 46041_TS_DEWT_022003.nc | 06-Dec-2024 23:45 | 591028 | ||
| 46041_TS_DEWT_022004.nc | 06-Dec-2024 23:47 | 592998 | ||
| 46041_TS_DEWT_022005.nc | 06-Dec-2024 23:52 | 429573 | ||
| 46041_TS_DEWT_022008.nc | 07-Dec-2024 00:02 | 604605 | ||
| 46041_TS_DEWT_022009.nc | 07-Dec-2024 00:04 | 591273 | ||
| 46041_TS_DEWT_022010.nc | 07-Dec-2024 00:07 | 422210 | ||
| 46041_TS_DEWT_022011.nc | 07-Dec-2024 00:09 | 429885 | ||
| 46041_TS_DEWT_022012.nc | 07-Dec-2024 00:11 | 603665 | ||
| 46041_TS_DEWT_022013.nc | 07-Dec-2024 00:13 | 593976 | ||
| 46041_TS_DEWT_022014.nc | 07-Dec-2024 00:16 | 901536 | ||
| 46041_TS_DEWT_022016.nc | 07-Dec-2024 00:19 | 429344 | ||
| 46041_TS_DEWT_022017.nc | 07-Dec-2024 00:21 | 600055 | ||
| 46041_TS_DEWT_022018.nc | 07-Dec-2024 00:23 | 600925 | ||
| 46041_TS_DEWT_022019.nc | 07-Dec-2024 00:24 | 587480 | ||
| 46041_TS_DEWT_022020.nc | 07-Dec-2024 00:26 | 429916 | ||
| 46041_TS_DEWT_022021.nc | 07-Dec-2024 00:30 | 606489 | ||
| 46041_TS_DEWT_022022.nc | 07-Dec-2024 00:34 | 431994 | ||
| 46041_TS_DEWT_022023.nc | 07-Dec-2024 00:35 | 419432 | ||
| 46041_TS_DEWT_022025.nc | 01-Mar-2025 08:51 | 420061 | ||
| 46041_TS_DEWT_022026.nc | 01-Mar-2026 11:35 | 901127 | ||
| 46041_TS_DEWT_031988.nc | 06-Dec-2024 22:54 | 427788 | ||
| 46041_TS_DEWT_031989.nc | 06-Dec-2024 22:55 | 428368 | ||
| 46041_TS_DEWT_031990.nc | 06-Dec-2024 22:57 | 605022 | ||
| 46041_TS_DEWT_031991.nc | 06-Dec-2024 22:58 | 421347 | ||
| 46041_TS_DEWT_031992.nc | 06-Dec-2024 23:00 | 607887 | ||
| 46041_TS_DEWT_031993.nc | 06-Dec-2024 23:02 | 429914 | ||
| 46041_TS_DEWT_031994.nc | 06-Dec-2024 23:11 | 604794 | ||
| 46041_TS_DEWT_031995.nc | 06-Dec-2024 23:18 | 439337 | ||
| 46041_TS_DEWT_031996.nc | 06-Dec-2024 23:20 | 902038 | ||
| 46041_TS_DEWT_031997.nc | 06-Dec-2024 23:21 | 429585 | ||
| 46041_TS_DEWT_032000.nc | 06-Dec-2024 23:25 | 427332 | ||
| 46041_TS_DEWT_032001.nc | 06-Dec-2024 23:27 | 423029 | ||
| 46041_TS_DEWT_032003.nc | 06-Dec-2024 23:45 | 607975 | ||
| 46041_TS_DEWT_032004.nc | 06-Dec-2024 23:47 | 429912 | ||
| 46041_TS_DEWT_032005.nc | 06-Dec-2024 23:54 | 418875 | ||
| 46041_TS_DEWT_032008.nc | 07-Dec-2024 00:02 | 439733 | ||
| 46041_TS_DEWT_032009.nc | 07-Dec-2024 00:05 | 425180 | ||
| 46041_TS_DEWT_032010.nc | 07-Dec-2024 00:07 | 902051 | ||
| 46041_TS_DEWT_032011.nc | 07-Dec-2024 00:09 | 429718 | ||
| 46041_TS_DEWT_032012.nc | 07-Dec-2024 00:11 | 1477524 | ||
| 46041_TS_DEWT_032013.nc | 07-Dec-2024 00:13 | 1625157 | ||
| 46041_TS_DEWT_032014.nc | 07-Dec-2024 00:16 | 1468318 | ||
| 46041_TS_DEWT_032015.nc | 07-Dec-2024 00:17 | 1626943 | ||
| 46041_TS_DEWT_032016.nc | 07-Dec-2024 00:19 | 1476699 | ||
| 46041_TS_DEWT_032017.nc | 07-Dec-2024 00:21 | 1627690 | ||
| 46041_TS_DEWT_032018.nc | 07-Dec-2024 00:23 | 1627894 | ||
| 46041_TS_DEWT_032019.nc | 07-Dec-2024 00:25 | 1627568 | ||
| 46041_TS_DEWT_032020.nc | 07-Dec-2024 00:27 | 1627251 | ||
| 46041_TS_DEWT_032021.nc | 07-Dec-2024 00:30 | 1626908 | ||
| 46041_TS_DEWT_032023.nc | 07-Dec-2024 00:36 | 1627832 | ||
| 46041_TS_DEWT_032025.nc | 02-Apr-2025 07:00 | 1627876 | ||
| 46041_TS_DEWT_032026.nc | 24-Mar-2026 12:13 | 1626271 | ||
| 46041_TS_DEWT_041988.nc | 06-Dec-2024 22:54 | 1627735 | ||
| 46041_TS_DEWT_041989.nc | 06-Dec-2024 22:55 | 1627679 | ||
| 46041_TS_DEWT_041990.nc | 06-Dec-2024 22:57 | 1627594 | ||
| 46041_TS_DEWT_041991.nc | 06-Dec-2024 22:59 | 1627745 | ||
| 46041_TS_DEWT_041992.nc | 06-Dec-2024 23:00 | 428690 | ||
| 46041_TS_DEWT_041993.nc | 06-Dec-2024 23:02 | 1465263 | ||
| 46041_TS_DEWT_041994.nc | 06-Dec-2024 23:12 | 1473291 | ||
| 46041_TS_DEWT_041995.nc | 06-Dec-2024 23:19 | 1163721 | ||
| 46041_TS_DEWT_041996.nc | 06-Dec-2024 23:20 | 1470162 | ||
| 46041_TS_DEWT_041997.nc | 06-Dec-2024 23:22 | 1470943 | ||
| 46041_TS_DEWT_042000.nc | 06-Dec-2024 23:25 | 1474385 | ||
| 46041_TS_DEWT_042001.nc | 06-Dec-2024 23:27 | 1470942 | ||
| 46041_TS_DEWT_042003.nc | 06-Dec-2024 23:45 | 1470782 | ||
| 46041_TS_DEWT_042004.nc | 06-Dec-2024 23:48 | 1470465 | ||
| 46041_TS_DEWT_042005.nc | 06-Dec-2024 23:55 | 1473879 | ||
| 46041_TS_DEWT_042008.nc | 07-Dec-2024 00:03 | 1470137 | ||
| 46041_TS_DEWT_042009.nc | 07-Dec-2024 00:05 | 1470612 | ||
| 46041_TS_DEWT_042010.nc | 07-Dec-2024 00:07 | 1470939 | ||
| 46041_TS_DEWT_042011.nc | 07-Dec-2024 00:09 | 1474206 | ||
| 46041_TS_DEWT_042012.nc | 07-Dec-2024 00:11 | 1470595 | ||
| 46041_TS_DEWT_042013.nc | 07-Dec-2024 00:13 | 1470717 | ||
| 46041_TS_DEWT_042014.nc | 07-Dec-2024 00:16 | 1469757 | ||
| 46041_TS_DEWT_042015.nc | 07-Dec-2024 00:17 | 429785 | ||
| 46041_TS_DEWT_042016.nc | 07-Dec-2024 00:19 | 1465967 | ||
| 46041_TS_DEWT_042017.nc | 07-Dec-2024 00:21 | 1478103 | ||
| 46041_TS_DEWT_042018.nc | 07-Dec-2024 00:23 | 1627823 | ||
| 46041_TS_DEWT_042019.nc | 07-Dec-2024 00:25 | 1625568 | ||
| 46041_TS_DEWT_042020.nc | 07-Dec-2024 00:27 | 1625344 | ||
| 46041_TS_DEWT_042021.nc | 07-Dec-2024 00:31 | 1627874 | ||
| 46041_TS_DEWT_042023.nc | 07-Dec-2024 00:36 | 1627863 | ||
| 46041_TS_DEWT_042025.nc | 01-May-2025 04:31 | 1627637 | ||
| 46041_TS_DEWT_051988.nc | 06-Dec-2024 22:54 | 1478663 | ||
| 46041_TS_DEWT_051989.nc | 06-Dec-2024 22:56 | 1474852 | ||
| 46041_TS_DEWT_051990.nc | 06-Dec-2024 22:57 | 1626775 | ||
| 46041_TS_DEWT_051991.nc | 06-Dec-2024 22:59 | 1627534 | ||
| 46041_TS_DEWT_051992.nc | 06-Dec-2024 23:00 | 1627536 | ||
| 46041_TS_DEWT_051993.nc | 06-Dec-2024 23:02 | 1627885 | ||
| 46041_TS_DEWT_051994.nc | 06-Dec-2024 23:14 | 1159970 | ||
| 46041_TS_DEWT_051995.nc | 06-Dec-2024 23:19 | 1625425 | ||
| 46041_TS_DEWT_051996.nc | 06-Dec-2024 23:20 | 1627567 | ||
| 46041_TS_DEWT_051997.nc | 06-Dec-2024 23:22 | 429321 | ||
| 46041_TS_DEWT_052000.nc | 06-Dec-2024 23:25 | 429477 | ||
| 46041_TS_DEWT_052001.nc | 06-Dec-2024 23:28 | 1468146 | ||
| 46041_TS_DEWT_052003.nc | 06-Dec-2024 23:46 | 1477290 | ||
| 46041_TS_DEWT_052004.nc | 06-Dec-2024 23:48 | 1474228 | ||
| 46041_TS_DEWT_052005.nc | 06-Dec-2024 23:57 | 1476870 | ||
| 46041_TS_DEWT_052008.nc | 07-Dec-2024 00:03 | 1477837 | ||
| 46041_TS_DEWT_052009.nc | 07-Dec-2024 00:05 | 1478013 | ||
| 46041_TS_DEWT_052010.nc | 07-Dec-2024 00:07 | 1477984 | ||
| 46041_TS_DEWT_052011.nc | 07-Dec-2024 00:10 | 1477990 | ||
| 46041_TS_DEWT_052012.nc | 07-Dec-2024 00:11 | 1476271 | ||
| 46041_TS_DEWT_052013.nc | 07-Dec-2024 00:14 | 1470862 | ||
| 46041_TS_DEWT_052014.nc | 07-Dec-2024 00:16 | 1477213 | ||
| 46041_TS_DEWT_052015.nc | 07-Dec-2024 00:17 | 1477861 | ||
| 46041_TS_DEWT_052016.nc | 07-Dec-2024 00:19 | 1477987 | ||
| 46041_TS_DEWT_052017.nc | 07-Dec-2024 00:21 | 1478015 | ||
| 46041_TS_DEWT_052018.nc | 07-Dec-2024 00:23 | 1477794 | ||
| 46041_TS_DEWT_052019.nc | 07-Dec-2024 00:25 | 1477919 | ||
| 46041_TS_DEWT_052020.nc | 07-Dec-2024 00:27 | 1476395 | ||
| 46041_TS_DEWT_052021.nc | 07-Dec-2024 00:31 | 429384 | ||
| 46041_TS_DEWT_052023.nc | 07-Dec-2024 00:36 | 429837 | ||
| 46041_TS_DEWT_052025.nc | 01-Jun-2025 04:22 | 1477352 | ||
| 46041_TS_DEWT_061987.nc | 06-Dec-2024 22:53 | 1478057 | ||
| 46041_TS_DEWT_061988.nc | 06-Dec-2024 22:54 | 1627783 | ||
| 46041_TS_DEWT_061990.nc | 06-Dec-2024 22:57 | 1474763 | ||
| 46041_TS_DEWT_061991.nc | 06-Dec-2024 22:59 | 1625362 | ||
| 46041_TS_DEWT_061992.nc | 06-Dec-2024 23:01 | 1627899 | ||
| 46041_TS_DEWT_061993.nc | 06-Dec-2024 23:02 | 1474690 | ||
| 46041_TS_DEWT_061994.nc | 06-Dec-2024 23:15 | 1627871 | ||
| 46041_TS_DEWT_061995.nc | 06-Dec-2024 23:19 | 1625626 | ||
| 46041_TS_DEWT_061996.nc | 06-Dec-2024 23:20 | 1627770 | ||
| 46041_TS_DEWT_061997.nc | 06-Dec-2024 23:22 | 1627757 | ||
| 46041_TS_DEWT_061998.nc | 06-Dec-2024 23:22 | 1627415 | ||
| 46041_TS_DEWT_061999.nc | 06-Dec-2024 23:23 | 1627867 | ||
| 46041_TS_DEWT_062000.nc | 06-Dec-2024 23:25 | 1627851 | ||
| 46041_TS_DEWT_062001.nc | 06-Dec-2024 23:29 | 1478298 | ||
| 46041_TS_DEWT_062002.nc | 06-Dec-2024 23:44 | 1627575 | ||
| 46041_TS_DEWT_062003.nc | 06-Dec-2024 23:46 | 1627334 | ||
| 46041_TS_DEWT_062004.nc | 06-Dec-2024 23:48 | 424950 | ||
| 46041_TS_DEWT_062005.nc | 06-Dec-2024 23:58 | 429448 | ||
| 46041_TS_DEWT_062006.nc | 07-Dec-2024 00:00 | 1474423 | ||
| 46041_TS_DEWT_062008.nc | 07-Dec-2024 00:03 | 1474607 | ||
| 46041_TS_DEWT_062009.nc | 07-Dec-2024 00:05 | 1477956 | ||
| 46041_TS_DEWT_062010.nc | 07-Dec-2024 00:07 | 1477747 | ||
| 46041_TS_DEWT_062011.nc | 07-Dec-2024 00:10 | 1477618 | ||
| 46041_TS_DEWT_062012.nc | 07-Dec-2024 00:12 | 1478003 | ||
| 46041_TS_DEWT_062013.nc | 07-Dec-2024 00:14 | 1477678 | ||
| 46041_TS_DEWT_062014.nc | 07-Dec-2024 00:16 | 1477877 | ||
| 46041_TS_DEWT_062015.nc | 07-Dec-2024 00:18 | 1477295 | ||
| 46041_TS_DEWT_062016.nc | 07-Dec-2024 00:20 | 1477031 | ||
| 46041_TS_DEWT_062017.nc | 07-Dec-2024 00:22 | 1477951 | ||
| 46041_TS_DEWT_062018.nc | 07-Dec-2024 00:24 | 1476668 | ||
| 46041_TS_DEWT_062019.nc | 07-Dec-2024 00:25 | 1477536 | ||
| 46041_TS_DEWT_062020.nc | 07-Dec-2024 00:27 | 1477967 | ||
| 46041_TS_DEWT_062021.nc | 07-Dec-2024 00:31 | 1477288 | ||
| 46041_TS_DEWT_062023.nc | 07-Dec-2024 00:37 | 1477631 | ||
| 46041_TS_DEWT_062025.nc | 01-Jul-2025 04:00 | 1476912 | ||
| 46041_TS_DEWT_071987.nc | 06-Dec-2024 22:53 | 429752 | ||
| 46041_TS_DEWT_071988.nc | 06-Dec-2024 22:54 | 429791 | ||
| 46041_TS_DEWT_071989.nc | 06-Dec-2024 22:56 | 1625187 | ||
| 46041_TS_DEWT_071990.nc | 06-Dec-2024 22:57 | 1627674 | ||
| 46041_TS_DEWT_071991.nc | 06-Dec-2024 22:59 | 1627811 | ||
| 46041_TS_DEWT_071992.nc | 06-Dec-2024 23:01 | 1627288 | ||
| 46041_TS_DEWT_071993.nc | 06-Dec-2024 23:02 | 1627872 | ||
| 46041_TS_DEWT_071994.nc | 06-Dec-2024 23:17 | 1627614 | ||
| 46041_TS_DEWT_071995.nc | 06-Dec-2024 23:19 | 1627836 | ||
| 46041_TS_DEWT_071996.nc | 06-Dec-2024 23:20 | 1627544 | ||
| 46041_TS_DEWT_071998.nc | 06-Dec-2024 23:22 | 1478193 | ||
| 46041_TS_DEWT_071999.nc | 06-Dec-2024 23:23 | 1627186 | ||
| 46041_TS_DEWT_072000.nc | 06-Dec-2024 23:25 | 1625545 | ||
| 46041_TS_DEWT_072001.nc | 06-Dec-2024 23:31 | 1626740 | ||
| 46041_TS_DEWT_072002.nc | 06-Dec-2024 23:44 | 1627870 | ||
| 46041_TS_DEWT_072003.nc | 06-Dec-2024 23:46 | 1475401 | ||
| 46041_TS_DEWT_072004.nc | 06-Dec-2024 23:48 | 1626354 | ||
| 46041_TS_DEWT_072005.nc | 06-Dec-2024 23:59 | 1627717 | ||
| 46041_TS_DEWT_072006.nc | 07-Dec-2024 00:00 | 1627320 | ||
| 46041_TS_DEWT_072008.nc | 07-Dec-2024 00:03 | 428862 | ||
| 46041_TS_DEWT_072009.nc | 07-Dec-2024 00:05 | 429713 | ||
| 46041_TS_DEWT_072010.nc | 07-Dec-2024 00:08 | 1472867 | ||
| 46041_TS_DEWT_072011.nc | 07-Dec-2024 00:10 | 1626009 | ||
| 46041_TS_DEWT_072012.nc | 07-Dec-2024 00:12 | 1625284 | ||
| 46041_TS_DEWT_072013.nc | 07-Dec-2024 00:14 | 1627769 | ||
| 46041_TS_DEWT_072014.nc | 07-Dec-2024 00:16 | 1627879 | ||
| 46041_TS_DEWT_072015.nc | 07-Dec-2024 00:18 | 1627876 | ||
| 46041_TS_DEWT_072016.nc | 07-Dec-2024 00:20 | 1627402 | ||
| 46041_TS_DEWT_072017.nc | 07-Dec-2024 00:22 | 1627786 | ||
| 46041_TS_DEWT_072019.nc | 07-Dec-2024 00:25 | 1477600 | ||
| 46041_TS_DEWT_072020.nc | 07-Dec-2024 00:28 | 1627842 | ||
| 46041_TS_DEWT_072021.nc | 07-Dec-2024 00:32 | 1627825 | ||
| 46041_TS_DEWT_072023.nc | 07-Dec-2024 00:37 | 1478246 | ||
| 46041_TS_DEWT_072025.nc | 31-Jul-2025 04:00 | 1627798 | ||
| 46041_TS_DEWT_081987.nc | 06-Dec-2024 22:53 | 1626081 | ||
| 46041_TS_DEWT_081988.nc | 06-Dec-2024 22:55 | 1627744 | ||
| 46041_TS_DEWT_081989.nc | 06-Dec-2024 22:56 | 1627523 | ||
| 46041_TS_DEWT_081990.nc | 06-Dec-2024 22:58 | 1627177 | ||
| 46041_TS_DEWT_081991.nc | 06-Dec-2024 22:59 | 423981 | ||
| 46041_TS_DEWT_081993.nc | 06-Dec-2024 23:03 | 1477100 | ||
| 46041_TS_DEWT_081994.nc | 06-Dec-2024 23:17 | 1474912 | ||
| 46041_TS_DEWT_081995.nc | 06-Dec-2024 23:19 | 1477234 | ||
| 46041_TS_DEWT_081996.nc | 06-Dec-2024 23:20 | 1472450 | ||
| 46041_TS_DEWT_081998.nc | 06-Dec-2024 23:22 | 1478003 | ||
| 46041_TS_DEWT_081999.nc | 06-Dec-2024 23:23 | 1478017 | ||
| 46041_TS_DEWT_082000.nc | 06-Dec-2024 23:26 | 1478011 | ||
| 46041_TS_DEWT_082001.nc | 06-Dec-2024 23:33 | 1476107 | ||
| 46041_TS_DEWT_082002.nc | 06-Dec-2024 23:44 | 1478019 | ||
| 46041_TS_DEWT_082003.nc | 06-Dec-2024 23:46 | 1477012 | ||
| 46041_TS_DEWT_082004.nc | 06-Dec-2024 23:48 | 1477917 | ||
| 46041_TS_DEWT_082005.nc | 06-Dec-2024 23:59 | 1477971 | ||
| 46041_TS_DEWT_082006.nc | 07-Dec-2024 00:01 | 1478011 | ||
| 46041_TS_DEWT_082008.nc | 07-Dec-2024 00:03 | 1477617 | ||
| 46041_TS_DEWT_082009.nc | 07-Dec-2024 00:05 | 1477775 | ||
| 46041_TS_DEWT_082010.nc | 07-Dec-2024 00:08 | 1477874 | ||
| 46041_TS_DEWT_082011.nc | 07-Dec-2024 00:10 | 1476987 | ||
| 46041_TS_DEWT_082012.nc | 07-Dec-2024 00:12 | 429637 | ||
| 46041_TS_DEWT_082013.nc | 07-Dec-2024 00:14 | 1477794 | ||
| 46041_TS_DEWT_082014.nc | 07-Dec-2024 00:17 | 1627545 | ||
| 46041_TS_DEWT_082015.nc | 07-Dec-2024 00:18 | 1475711 | ||
| 46041_TS_DEWT_082016.nc | 07-Dec-2024 00:20 | 1626764 | ||
| 46041_TS_DEWT_082017.nc | 07-Dec-2024 00:22 | 1627841 | ||
| 46041_TS_DEWT_082019.nc | 07-Dec-2024 00:25 | 1625300 | ||
| 46041_TS_DEWT_082020.nc | 07-Dec-2024 00:28 | 1627827 | ||
| 46041_TS_DEWT_082021.nc | 07-Dec-2024 00:32 | 1627863 | ||
| 46041_TS_DEWT_082023.nc | 07-Dec-2024 00:37 | 1626986 | ||
| 46041_TS_DEWT_082025.nc | 01-Sep-2025 04:13 | 1627057 | ||
| 46041_TS_DEWT_091987.nc | 06-Dec-2024 22:53 | 1625493 | ||
| 46041_TS_DEWT_091988.nc | 06-Dec-2024 22:55 | 1627462 | ||
| 46041_TS_DEWT_091990.nc | 06-Dec-2024 22:58 | 1627006 | ||
| 46041_TS_DEWT_091991.nc | 06-Dec-2024 22:59 | 1627355 | ||
| 46041_TS_DEWT_091992.nc | 06-Dec-2024 23:01 | 1627379 | ||
| 46041_TS_DEWT_091993.nc | 06-Dec-2024 23:03 | 1625304 | ||
| 46041_TS_DEWT_091994.nc | 06-Dec-2024 23:17 | 1626358 | ||
| 46041_TS_DEWT_091996.nc | 06-Dec-2024 23:21 | 429374 | ||
| 46041_TS_DEWT_091998.nc | 06-Dec-2024 23:22 | 1474692 | ||
| 46041_TS_DEWT_091999.nc | 06-Dec-2024 23:24 | 1477163 | ||
| 46041_TS_DEWT_092000.nc | 06-Dec-2024 23:26 | 1477254 | ||
| 46041_TS_DEWT_092001.nc | 06-Dec-2024 23:34 | 1477804 | ||
| 46041_TS_DEWT_092002.nc | 06-Dec-2024 23:44 | 1477944 | ||
| 46041_TS_DEWT_092003.nc | 06-Dec-2024 23:46 | 1478015 | ||
| 46041_TS_DEWT_092004.nc | 06-Dec-2024 23:48 | 1478016 | ||
| 46041_TS_DEWT_092005.nc | 07-Dec-2024 00:00 | 1477326 | ||
| 46041_TS_DEWT_092006.nc | 07-Dec-2024 00:01 | 1477723 | ||
| 46041_TS_DEWT_092008.nc | 07-Dec-2024 00:04 | 1464010 | ||
| 46041_TS_DEWT_092009.nc | 07-Dec-2024 00:05 | 1477578 | ||
| 46041_TS_DEWT_092010.nc | 07-Dec-2024 00:08 | 1477932 | ||
| 46041_TS_DEWT_092011.nc | 07-Dec-2024 00:10 | 1477880 | ||
| 46041_TS_DEWT_092012.nc | 07-Dec-2024 00:12 | 1477957 | ||
| 46041_TS_DEWT_092013.nc | 07-Dec-2024 00:14 | 1472315 | ||
| 46041_TS_DEWT_092014.nc | 07-Dec-2024 00:17 | 1477757 | ||
| 46041_TS_DEWT_092015.nc | 07-Dec-2024 00:18 | 1477791 | ||
| 46041_TS_DEWT_092016.nc | 07-Dec-2024 00:20 | 1477348 | ||
| 46041_TS_DEWT_092017.nc | 07-Dec-2024 00:22 | 429836 | ||
| 46041_TS_DEWT_092019.nc | 07-Dec-2024 00:26 | 1626356 | ||
| 46041_TS_DEWT_092020.nc | 07-Dec-2024 00:28 | 1627629 | ||
| 46041_TS_DEWT_092021.nc | 07-Dec-2024 00:33 | 1467942 | ||
| 46041_TS_DEWT_092023.nc | 07-Dec-2024 00:38 | 1625304 | ||
| 46041_TS_DEWT_092025.nc | 01-Oct-2025 03:33 | 1627841 | ||
| 46041_TS_DEWT_101987.nc | 06-Dec-2024 22:53 | 1478203 | ||
| 46041_TS_DEWT_101988.nc | 06-Dec-2024 22:55 | 1627870 | ||
| 46041_TS_DEWT_101989.nc | 06-Dec-2024 22:56 | 1627798 | ||
| 46041_TS_DEWT_101990.nc | 06-Dec-2024 22:58 | 1627828 | ||
| 46041_TS_DEWT_101991.nc | 06-Dec-2024 22:59 | 1473638 | ||
| 46041_TS_DEWT_101992.nc | 06-Dec-2024 23:01 | 1627516 | ||
| 46041_TS_DEWT_101993.nc | 06-Dec-2024 23:03 | 1627770 | ||
| 46041_TS_DEWT_101996.nc | 06-Dec-2024 23:21 | 1473594 | ||
| 46041_TS_DEWT_101998.nc | 06-Dec-2024 23:23 | 1627427 | ||
| 46041_TS_DEWT_101999.nc | 06-Dec-2024 23:24 | 1627764 | ||
| 46041_TS_DEWT_102000.nc | 06-Dec-2024 23:26 | 1626661 | ||
| 46041_TS_DEWT_102001.nc | 06-Dec-2024 23:36 | 1474956 | ||
| 46041_TS_DEWT_102002.nc | 06-Dec-2024 23:44 | 1539476 | ||
| 46041_TS_DEWT_102003.nc | 06-Dec-2024 23:47 | 1470972 | ||
| 46041_TS_DEWT_102004.nc | 06-Dec-2024 23:49 | 1476558 | ||
| 46041_TS_DEWT_102005.nc | 07-Dec-2024 00:00 | 1478018 | ||
| 46041_TS_DEWT_102006.nc | 07-Dec-2024 00:01 | 1627504 | ||
| 46041_TS_DEWT_102007.nc | 07-Dec-2024 00:01 | 1469547 | ||
| 46041_TS_DEWT_102008.nc | 07-Dec-2024 00:04 | 1470053 | ||
| 46041_TS_DEWT_102009.nc | 07-Dec-2024 00:06 | 1470762 | ||
| 46041_TS_DEWT_102010.nc | 07-Dec-2024 00:08 | 1465399 | ||
| 46041_TS_DEWT_102011.nc | 07-Dec-2024 00:10 | 1468705 | ||
| 46041_TS_DEWT_102012.nc | 07-Dec-2024 00:12 | 1150702 | ||
| 46041_TS_DEWT_102013.nc | 07-Dec-2024 00:15 | 1463588 | ||
| 46041_TS_DEWT_102014.nc | 07-Dec-2024 00:17 | 1478162 | ||
| 46041_TS_DEWT_102015.nc | 07-Dec-2024 00:18 | 1468886 | ||
| 46041_TS_DEWT_102016.nc | 07-Dec-2024 00:20 | 1154017 | ||
| 46041_TS_DEWT_102017.nc | 07-Dec-2024 00:22 | 1462695 | ||
| 46041_TS_DEWT_102018.nc | 07-Dec-2024 00:24 | 1472819 | ||
| 46041_TS_DEWT_102019.nc | 07-Dec-2024 00:26 | 1475130 | ||
| 46041_TS_DEWT_102020.nc | 07-Dec-2024 00:29 | 1458143 | ||
| 46041_TS_DEWT_102021.nc | 07-Dec-2024 00:33 | 1471665 | ||
| 46041_TS_DEWT_102023.nc | 07-Dec-2024 00:38 | 1475668 | ||
| 46041_TS_DEWT_102024.nc | 12-Jan-2025 20:17 | 1460480 | ||
| 46041_TS_DEWT_102025.nc | 01-Nov-2025 04:48 | 1463991 | ||
| 46041_TS_DEWT_111987.nc | 06-Dec-2024 22:53 | 1473208 | ||
| 46041_TS_DEWT_111988.nc | 06-Dec-2024 22:55 | 1472949 | ||
| 46041_TS_DEWT_111989.nc | 06-Dec-2024 22:56 | 1473011 | ||
| 46041_TS_DEWT_111990.nc | 06-Dec-2024 22:58 | 1464806 | ||
| 46041_TS_DEWT_111991.nc | 06-Dec-2024 23:00 | 1476812 | ||
| 46041_TS_DEWT_111992.nc | 06-Dec-2024 23:01 | 1473139 | ||
| 46041_TS_DEWT_111993.nc | 06-Dec-2024 23:04 | 1476801 | ||
| 46041_TS_DEWT_111994.nc | 06-Dec-2024 23:18 | 1469066 | ||
| 46041_TS_DEWT_111995.nc | 06-Dec-2024 23:19 | 1477387 | ||
| 46041_TS_DEWT_111996.nc | 06-Dec-2024 23:21 | 1471851 | ||
| 46041_TS_DEWT_111998.nc | 06-Dec-2024 23:23 | 1469934 | ||
| 46041_TS_DEWT_111999.nc | 06-Dec-2024 23:24 | 1461444 | ||
| 46041_TS_DEWT_112000.nc | 06-Dec-2024 23:26 | 1474061 | ||
| 46041_TS_DEWT_112001.nc | 06-Dec-2024 23:37 | 1156876 | ||
| 46041_TS_DEWT_112002.nc | 06-Dec-2024 23:44 | 1470002 | ||
| 46041_TS_DEWT_112003.nc | 06-Dec-2024 23:47 | 1154163 | ||
| 46041_TS_DEWT_112004.nc | 06-Dec-2024 23:49 | 1476938 | ||
| 46041_TS_DEWT_112005.nc | 07-Dec-2024 00:00 | 1144074 | ||
| 46041_TS_DEWT_112006.nc | 07-Dec-2024 00:01 | 1473272 | ||
| 46041_TS_DEWT_112007.nc | 07-Dec-2024 00:02 | 1472196 | ||
| 46041_TS_DEWT_112008.nc | 07-Dec-2024 00:04 | 1459599 | ||
| 46041_TS_DEWT_112009.nc | 07-Dec-2024 00:06 | 1477130 | ||
| 46041_TS_DEWT_112010.nc | 07-Dec-2024 00:08 | 429106 | ||
| 46041_TS_DEWT_112011.nc | 07-Dec-2024 00:10 | 1627018 | ||
| 46041_TS_DEWT_112012.nc | 07-Dec-2024 00:12 | 1627383 | ||
| 46041_TS_DEWT_112013.nc | 07-Dec-2024 00:15 | 1627854 | ||
| 46041_TS_DEWT_112015.nc | 07-Dec-2024 00:18 | 1625985 | ||
| 46041_TS_DEWT_112016.nc | 07-Dec-2024 00:20 | 1049090 | ||
| 46041_TS_DEWT_112017.nc | 07-Dec-2024 00:22 | 1475663 | ||
| 46041_TS_DEWT_112018.nc | 07-Dec-2024 00:24 | 1626702 | ||
| 46041_TS_DEWT_112019.nc | 07-Dec-2024 00:26 | 1476388 | ||
| 46041_TS_DEWT_112020.nc | 07-Dec-2024 00:29 | 1626390 | ||
| 46041_TS_DEWT_112021.nc | 07-Dec-2024 00:33 | 1625979 | ||
| 46041_TS_DEWT_112023.nc | 07-Dec-2024 00:38 | 1625966 | ||
| 46041_TS_DEWT_112024.nc | 17-Jan-2025 13:57 | 1626772 | ||
| 46041_TS_DEWT_112025.nc | 01-Dec-2025 06:22 | 1626538 | ||
| 46041_TS_DEWT_121987.nc | 06-Dec-2024 22:53 | 1476537 | ||
| 46041_TS_DEWT_121988.nc | 06-Dec-2024 22:55 | 1626689 | ||
| 46041_TS_DEWT_121989.nc | 06-Dec-2024 22:56 | 1464903 | ||
| 46041_TS_DEWT_121990.nc | 06-Dec-2024 22:58 | 1626954 | ||
| 46041_TS_DEWT_121991.nc | 06-Dec-2024 23:00 | 1469818 | ||
| 46041_TS_DEWT_121992.nc | 06-Dec-2024 23:01 | 1473490 | ||
| 46041_TS_DEWT_121993.nc | 06-Dec-2024 23:06 | 1469968 | ||
| 46041_TS_DEWT_121994.nc | 06-Dec-2024 23:18 | 1469845 | ||
| 46041_TS_DEWT_121995.nc | 06-Dec-2024 23:19 | 1469395 | ||
| 46041_TS_DEWT_121996.nc | 06-Dec-2024 23:21 | 1473278 | ||
| 46041_TS_DEWT_121998.nc | 06-Dec-2024 23:23 | 1469649 | ||
| 46041_TS_DEWT_121999.nc | 06-Dec-2024 23:24 | 1469952 | ||
| 46041_TS_DEWT_122000.nc | 06-Dec-2024 23:26 | 1469679 | ||
| 46041_TS_DEWT_122001.nc | 06-Dec-2024 23:39 | 1473228 | ||
| 46041_TS_DEWT_122002.nc | 06-Dec-2024 23:45 | 1149701 | ||
| 46041_TS_DEWT_122003.nc | 06-Dec-2024 23:47 | 1469882 | ||
| 46041_TS_DEWT_122004.nc | 06-Dec-2024 23:49 | 1474063 | ||
| 46041_TS_DEWT_122005.nc | 07-Dec-2024 00:00 | 1470224 | ||
| 46041_TS_DEWT_122007.nc | 07-Dec-2024 00:02 | 1626855 | ||
| 46041_TS_DEWT_122008.nc | 07-Dec-2024 00:04 | 1625342 | ||
| 46041_TS_DEWT_122009.nc | 07-Dec-2024 00:06 | 1476012 | ||
| 46041_TS_DEWT_122010.nc | 07-Dec-2024 00:09 | 1625482 | ||
| 46041_TS_DEWT_122011.nc | 07-Dec-2024 00:11 | 1626587 | ||
| 46041_TS_DEWT_122012.nc | 07-Dec-2024 00:12 | 1626860 | ||
| 46041_TS_DEWT_122013.nc | 07-Dec-2024 00:15 | 1626591 | ||
| 46041_TS_DEWT_122015.nc | 07-Dec-2024 00:19 | 1626962 | ||
| 46041_TS_DEWT_122016.nc | 07-Dec-2024 00:20 | 1159258 | ||
| 46041_TS_DEWT_122017.nc | 07-Dec-2024 00:23 | 1626641 | ||
| 46041_TS_DEWT_122018.nc | 07-Dec-2024 00:24 | 1476889 | ||
| 46041_TS_DEWT_122019.nc | 07-Dec-2024 00:26 | 1477063 | ||
| 46041_TS_DEWT_122020.nc | 07-Dec-2024 00:29 | 1459018 | ||
| 46041_TS_DEWT_122021.nc | 07-Dec-2024 00:34 | 1477069 | ||
| 46041_TS_DEWT_122022.nc | 07-Dec-2024 00:35 | 1470372 | ||
| 46041_TS_DEWT_122023.nc | 07-Dec-2024 00:39 | 1476182 | ||
| 46041_TS_DEWT_122024.nc | 22-Jan-2025 16:00 | 1476660 | ||
| 46041_TS_DEWT_122025.nc | 01-Jan-2026 07:53 | 1475078 | ||